IRIDIUM 37 [P] (24968 NORAD) Tracking and Keplerian Element Data

This shows tracking and keplerian element data for the satellite.

Feedback or suggestion? Click here.




ElementValue
Catalog24968
NameIRIDIUM 37 [P]
Epoch Orbit8329
Epoch Day145.92597408
Epoch Year2018
RAAN163.18
Inclination86.3531
Eccentricity0.0013823
Argument of Perigee29.0123
Mean Anonmoly331.5952
Mean Motion16.45904624
Decay Rate0.13759171
L11 24968U 97056D 18145.92597408 .13759171 -15624-5 28462-3 0 9992
L22 24968 86.3531 163.1800 0013823 29.0123 331.5952 16.45904624 83291



Live tracking and technical data element details for IRIDIUM 37 [P] (NORAD 24968). IRIDIUM 37 [P] can be tracked NOW for your location showing map with azimuth and elevation plus other details from your city location.







IsCatalogInMostPopularTable: catalog: 24968, numindb: 497
Update: records affected: 1



GetName: 24968 IRIDIUM 37 [P]

Hit Count: updated at: Thu, 22 May 2025 04:35:08 GMT